KC1RCJ Weather Reports


Display with metric or nautical units.
time (UTC)temp
F
wind
direction
speed
MPH
gust
MPH
rain 1hr
in
rain 24hr
in
rain mn
in
humidity
%
barometer
mb
20260508090031 42 280 4.0 8.0 0.00 0.00 0.00 66 1004.8
20260508084528 43 302 4.0 9.0 0.00 0.00 0.00 67 1004.6
20260508083031 43 311 5.0 9.0 0.00 0.00 0.00 65 1004.6
20260508081537 42 284 5.0 9.0 0.00 0.00 0.00 68 1004.7
20260508080031 41 286 2.0 6.0 0.00 0.00 0.00 71 1004.8
20260508074528 41 0 0.0 4.0 0.00 0.01 0.00 70 1004.6
20260508073039 41 269 2.0 6.0 0.00 0.01 0.00 69 1004.5
20260508071528 41 307 2.0 6.0 0.00 0.01 0.00 70 1004.7
20260508070054 40 287 1.0 2.0 0.00 0.01 0.00 69 1004.5
20260508064534 41 0 1.0 3.0 0.00 0.02 0.00 67 1004.6
20260508063028 42 287 0.0 3.0 0.00 0.02 0.00 66 1004.6
20260508061532 42 274 1.0 7.0 0.00 0.02 0.00 66 1004.6
20260508060032 42 293 2.0 6.0 0.00 0.02 0.00 65 1004.7
20260508054530 42 302 0.0 2.0 0.00 0.23 0.00 66 1005.0
20260508053030 43 302 1.0 5.0 0.00 0.23 0.00 67 1005.0
20260508051528 43 277 3.0 7.0 0.00 0.23 0.00 61 1004.9
20260508050030 43 277 2.0 3.0 0.00 0.23 0.00 60 1005.1
20260508044528 44 277 1.0 2.0 0.00 0.24 0.00 58 1005.2
20260508043048 45 287 1.0 6.0 0.00 0.24 0.00 57 1005.3
20260508041528 46 307 3.0 7.0 0.00 0.24 0.00 57 1005.3
20260508040032 46 317 3.0 7.0 0.00 0.24 0.00 58 1005.4
20260508034529 46 313 4.0 9.0 0.00 0.24 0.24 57 1005.6
20260508033032 47 302 5.0 9.0 0.00 0.24 0.24 56 1005.7
20260508031528 47 311 6.0 11.0 0.00 0.24 0.24 54 1005.2
20260508030042 48 290 6.0 13.0 0.00 0.24 0.24 53 1005.3
20260508024534 48 294 11.0 15.0 0.00 0.36 0.24 53 1005.1
20260508023032 49 325 10.0 13.0 0.00 0.36 0.24 54 1005.0
20260508021530 49 313 10.0 14.0 0.00 0.36 0.24 53 1005.2
20260508020028 50 303 12.0 16.0 0.00 0.36 0.24 51 1005.3
20260508014529 50 321 13.0 19.0 0.00 0.58 0.24 52 1005.5
20260508013029 51 311 13.0 20.0 0.00 0.58 0.24 50 1005.2
20260508011532 51 310 15.0 23.0 0.00 0.58 0.24 51 1005.1
20260508010031 52 319 17.0 23.0 0.00 0.58 0.24 51 1004.9
20260508004529 53 309 15.0 23.0 0.00 0.74 0.24 53 1004.7
20260508003030 53 319 13.0 19.0 0.00 0.74 0.24 56 1004.4
20260508001531 53 306 14.0 19.0 0.00 0.74 0.24 63 1004.1
20260508000029 52 331 7.0 14.0 0.00 0.74 0.24 73 1003.8
20260507234536 51 0 0.0 4.0 0.00 0.89 0.24 74 1003.6
20260507233028 52 141 1.0 4.0 0.00 0.89 0.24 73 1003.3
20260507231530 53 0 0.0 3.0 0.00 0.89 0.24 72 1003.2
20260507230032 53 0 0.0 4.0 0.00 0.89 0.24 71 1002.9
20260507224529 52 0 0.0 4.0 0.00 0.93 0.24 71 1002.8
20260507223028 53 30 1.0 7.0 0.00 0.93 0.24 70 1002.7
20260507221528 53 178 5.0 13.0 0.00 0.93 0.24 69 1002.5
20260507220030 53 222 3.0 10.0 0.00 0.93 0.24 67 1002.7
20260507214530 53 159 4.0 12.0 0.00 0.96 0.24 66 1002.6
20260507213031 54 201 8.0 16.0 0.00 0.96 0.24 65 1002.7
20260507211530 54 203 7.0 14.0 0.00 0.96 0.24 65 1002.8
20260507210029 55 184 6.0 16.0 0.00 0.96 0.24 65 1002.7
20260507204530 56 160 8.0 19.0 0.00 0.96 0.24 64 1002.5
20260507203032 56 190 5.0 17.0 0.00 0.96 0.24 64 1002.5
20260507201537 58 229 8.0 22.0 0.00 0.96 0.24 61 1002.6
20260507200027 57 204 8.0 16.0 0.00 0.96 0.24 62 1002.5
20260507194528 58 192 6.0 14.0 0.00 0.96 0.24 63 1002.6
20260507193032 58 205 7.0 16.0 0.00 0.96 0.24 64 1002.5
20260507191534 57 190 7.0 16.0 0.00 0.96 0.24 66 1002.7
20260507190031 58 242 8.0 18.0 0.00 0.96 0.24 65 1002.6
20260507184528 58 207 8.0 17.0 0.00 0.96 0.24 63 1002.7
20260507183038 59 215 8.0 15.0 0.00 0.96 0.24 63 1002.8
20260507181530 59 195 9.0 18.0 0.00 0.96 0.24 64 1002.7
20260507180032 55 162 11.0 17.0 0.00 0.96 0.24 71 1003.0
20260507174535 54 155 11.0 17.0 0.00 0.96 0.24 73 1003.2
20260507173034 54 169 10.0 15.0 0.00 0.96 0.24 72 1003.1
20260507171531 53 162 11.0 15.0 0.00 0.96 0.24 74 1003.1
20260507170030 52 170 10.0 16.0 0.00 0.96 0.24 77 1003.2
20260507164531 53 158 14.0 16.0 0.00 0.96 0.24 72 1003.4
20260507163036 53 177 9.0 16.0 0.00 0.96 0.24 73 1003.6
20260507161529 54 168 9.0 15.0 0.00 0.96 0.24 70 1003.5
20260507160035 53 160 8.0 11.0 0.00 0.96 0.24 72 1003.6
20260507154528 53 167 5.0 8.0 0.00 0.96 0.24 70 1003.9
20260507153031 52 164 5.0 8.0 0.00 0.96 0.24 75 1004.0
20260507151531 53 106 4.0 6.0 0.00 0.96 0.24 72 1004.3
20260507150030 52 85 2.0 4.0 0.00 0.96 0.24 74 1004.3
20260507144528 52 88 4.0 6.0 0.00 0.96 0.24 74 1004.4
20260507143050 52 117 3.0 4.0 0.00 0.96 0.24 75 1004.6
20260507141547 52 5 3.0 8.0 0.00 0.96 0.24 74 1004.8
20260507140032 51 5 2.0 6.0 0.00 0.96 0.24 75 1004.8
20260507134528 51 360 5.0 10.0 0.00 0.96 0.24 76 1004.8
20260507133027 51 331 8.0 13.0 0.00 0.96 0.24 77 1005.2
20260507131538 50 294 10.0 14.0 0.00 0.96 0.24 79 1005.3
20260507130040 50 330 10.0 15.0 0.00 0.96 0.24 80 1005.0
20260507124530 49 325 5.0 11.0 0.00 0.96 0.24 83 1005.0
20260507123030 49 294 9.0 15.0 0.00 0.96 0.24 84 1004.8
20260507121530 48 313 8.0 10.0 0.00 0.96 0.24 86 1004.8
20260507120030 48 323 4.0 9.0 0.00 0.96 0.24 86 1004.8
20260507114531 47 291 4.0 8.0 0.00 0.96 0.24 89 1005.4
20260507113030 47 294 4.0 8.0 0.00 0.96 0.24 88 1005.7
20260507111530 47 271 4.0 11.0 0.00 0.96 0.24 87 1005.9
20260507110030 47 287 8.0 13.0 0.00 0.96 0.24 86 1005.6
20260507104531 47 284 8.0 14.0 0.00 0.96 0.24 87 1005.6
20260507103031 46 295 8.0 14.0 0.00 0.96 0.24 88 1004.8
20260507101528 47 269 9.0 16.0 0.00 0.96 0.24 88 1004.6
20260507100036 47 317 10.0 15.0 0.00 0.96 0.24 88 1004.2
20260507094528 47 294 10.0 15.0 0.00 0.96 0.24 90 1004.1
20260507093028 47 320 13.0 18.0 0.00 0.96 0.24 89 1004.0
20260507091535 47 310 11.0 16.0 0.00 0.96 0.24 89 1004.6